COSMOS 2477 (745) (37868 NORAD) Tracking and Keplerian Element Data

This shows tracking and keplerian element data for the satellite.

Feedback or suggestion? Click here.




ElementValue
Catalog37868
NameCOSMOS 2477 (745)
Epoch Orbit5534
Epoch Day348.32341163
Epoch Year2018
RAAN165.8462
Inclination64.5019
Eccentricity0.0014186
Argument of Perigee236.4073
Mean Anonmoly124.686
Mean Motion2.13101739
Decay Rate1.03E-06
L11 37868U 11064B 18348.32341163 .00000103 00000-0 00000+0 0 9994
L22 37868 64.5019 165.8462 0014186 236.4073 124.6860 2.13101739 55347

Live tracking and technical data element details for COSMOS 2477 (745) (NORAD 37868). COSMOS 2477 (745) can be tracked NOW for your location showing map with azimuth and elevation plus other details from your city location.

Track the satellite on the map from your city or location and see movement details for azimuth, elevation, latitude, longitude, range, height, and movement on the map or in text.







IsCatalogInMostPopularTable: catalog: 37868, numindb: 52
Update: records affected: 1



GetName: 37868 COSMOS 2477 (745)

Hit Count: updated at: Sat, 15 Dec 2018 13:21:44 GMT